Weather History for Charlotte, NC

Change the Weather History Date:

Thursday, May 16, 2013

  Actual Average Record
Temperature  
Mean Temperature 71 °F 67 °F  
Max Temperature 83 °F 79 °F 94 °F (1941)
Min Temperature 59 °F 56 °F 42 °F (1978)
Degree Days  
Heating Degree Days 0 2  
Month to date heating degree days 63 39  
Since 1 July heating degree days 3210 3371  
Cooling Degree Days 6 4  
Month to date cooling degree days 26 44  
Year to date cooling degree days 69 81  
Growing Degree Days 20 (Base 50)    
Moisture  
Dew Point 59 °F    
Average Humidity 62    
Maximum Humidity 84    
Minimum Humidity 40    
Precipitation  
Precipitation 0.00 in 0.10 in 1.79 in (1982)
Month to date precipitation 2.27 1.58  
Year to date precipitation 18.02 15.36  
Snow  
Snow 0.00 in 0.00 in 0.00 in ()
Month to date snowfall 0.0 0.0  
Since 1 July snowfall 2.7 4.3  
Snow Depth 0.00 in    
Sea Level Pressure  
Sea Level Pressure 29.98 in    
Wind  
Wind Speed 4 mph (SW)    
Max Wind Speed 12 mph    
Max Gust Speed 18 mph    
Visibility 10 miles    
Events      
T = Trace of Precipitation, MM = Missing Value Source: NWS Daily Summary

Daily Weather History Graph

Daily Weather History Graph

Search for Another Location

Airport:

Trip Planner

Search our weather history database for the weather conditions in past years. The results will help you decide how hot, cold, wet, or windy it might be!

Date:

Astronomy

May. 16, 2013 Rise Set
Actual Time 6:18 AM EDT 8:21 PM EDT
Civil Twilight 5:50 AM EDT 8:50 PM EDT
Nautical Twilight 5:16 AM EDT 9:24 PM EDT
Astronomical Twilight 4:39 AM EDT 10:01 PM EDT
Moon 11:46 AM EDT (5/16) 12:45 AM EDT (5/16)
Length of Visible Light 14h 59m
Length of Day
14h 03m
Waxing Crescent, 35% of the Moon is Illuminated
May 16
Waxing Crescent
May 18
First Quarter
May 25
Full
May 31
Last Quarter
Jun 8
New

Hourly Weather History & Observations

Time (EDT) Temp. Heat Index Dew Point Humidity Pressure Visibility Wind Dir Wind Speed Gust Speed Precip Events Conditions
12:52 AM 72.0 °F - 57.0 °F 59% 29.95 in 10.0 mi SW 6.9 mph - N/A   Scattered Clouds
1:52 AM 71.1 °F - 57.0 °F 61% 29.95 in 10.0 mi WSW 4.6 mph - N/A   Scattered Clouds
2:52 AM 66.9 °F - 57.0 °F 70% 29.94 in 10.0 mi Calm Calm - N/A   Partly Cloudy
3:52 AM 64.9 °F - 55.9 °F 73% 29.94 in 10.0 mi Calm Calm - N/A   Partly Cloudy
4:52 AM 64.0 °F - 55.9 °F 75% 29.94 in 10.0 mi Calm Calm - N/A   Mostly Cloudy
5:52 AM 60.1 °F - 55.9 °F 86% 29.95 in 10.0 mi Calm Calm - N/A   Mostly Cloudy
6:52 AM 61.0 °F - 55.9 °F 83% 29.97 in 10.0 mi South 3.5 mph - N/A   Mostly Cloudy
7:52 AM 64.0 °F - 59.0 °F 84% 29.99 in 9.0 mi Calm Calm - N/A   Mostly Cloudy
8:52 AM 71.1 °F - 57.9 °F 63% 30.00 in 10.0 mi Calm Calm - N/A   Overcast
9:52 AM 75.9 °F - 59.0 °F 56% 30.02 in 10.0 mi WNW 5.8 mph - N/A   Overcast
10:52 AM 80.1 °F 80.4 °F 57.0 °F 45% 30.02 in 10.0 mi West 5.8 mph - N/A   Overcast
11:52 AM 82.0 °F 81.6 °F 55.9 °F 41% 30.01 in 10.0 mi Variable 4.6 mph - N/A   Overcast
12:52 PM 82.0 °F 81.6 °F 55.9 °F 41% 30.00 in 10.0 mi Variable 3.5 mph - N/A   Overcast
1:52 PM 81.0 °F 80.7 °F 55.0 °F 41% 29.99 in 10.0 mi SW 9.2 mph - N/A   Overcast
2:52 PM 82.0 °F 82.7 °F 61.0 °F 49% 29.99 in 10.0 mi SW 6.9 mph - N/A   Overcast
3:52 PM 80.1 °F 80.9 °F 60.1 °F 50% 29.99 in 10.0 mi SW 9.2 mph - N/A   Overcast
4:52 PM 77.0 °F - 60.1 °F 56% 29.97 in 10.0 mi SW 5.8 mph - N/A   Overcast
5:52 PM 77.0 °F - 63.0 °F 62% 29.97 in 10.0 mi SW 8.1 mph - N/A   Mostly Cloudy
6:52 PM 77.0 °F - 62.1 °F 60% 29.97 in 10.0 mi SW 5.8 mph - N/A   Mostly Cloudy
7:52 PM 73.9 °F - 61.0 °F 64% 29.97 in 10.0 mi SSW 6.9 mph - N/A   Scattered Clouds
8:52 PM 72.0 °F - 61.0 °F 68% 29.99 in 10.0 mi SW 4.6 mph - N/A   Mostly Cloudy
9:52 PM 68.0 °F - 61.0 °F 78% 30.01 in 10.0 mi North 3.5 mph - N/A   Scattered Clouds
10:52 PM 70.0 °F - 61.0 °F 73% 30.02 in 10.0 mi Calm Calm - N/A   Mostly Cloudy
11:52 PM 69.1 °F - 62.1 °F 78% 30.02 in 10.0 mi Calm Calm - N/A   Mostly Cloudy